星链-4206 (STARLINK-4206 )

导读

STARLINK-4206是美国SpaceX星链卫星互联网项目中的一颗卫星,于2022年6月17日发射升空,属于星链低轨卫星星座的组网卫星。它运行在近地轨道,旨在为全球提供高速低延迟的互联网覆盖服务,是星链大规模星座建设过程中补充组网的一部分,助力该星座逐步实现全球无缝网络覆盖的目标。

Basic Information
目录编号:
52847
目录名称:
STARLINK-4206
国际标识:
2022-062T
轨道中心:
EARTH
卫星名称:
星链-4206
卫星全名:
星链-4206 (STARLINK-4206 )
卫星状态:
在轨 (已飞行1540 天)
发射日期:
2022-06-17 UTC
国别 :
美国 (US)
星等 :
--
Orbit Information
数据来源 国际轨道数据
星历时间: 2026-09-03T18:19:55+0800
23小时前
查看轨道信息
半长轴: 6837.884km
偏心率: 0.0001191
轨道倾角: 53.163°
近地点辐角 92.166°
升交点赤经 309.291°
平近点角 267.948°
近地点: 458.932km
远地点: 460.562km
周期: 93.787分钟
每日圈数: 15.353952
Detailed Information
固有亮度:
5
最大亮度:
2.5
卫星平台:
Starlink v1.5
覆盖范围:
全球
运营商:
太空探索技术公司
运营商所在国:
美国
制造商(研发单位):
太空探索技术公司
制造商所在国:
美国
使用方式:
暂无
Satellite Introduction
星链(Starlink)计划是由太空探索技术公司(SpaceX)提出的一个巨型低轨卫星互联网星座项目,计划在2019年至2024年间在太空搭建由约1.2万颗卫星组成的“星链”网络,其中1584颗将部署在地球上空550千米处的近地轨道,并从2020年开始工作。该卫星仍在工作。
2D Orbit Map
3D Orbit Map
Orbit Altitude Analysis Chart
Orbit Inclination Analysis Chart
Orbit Comprehensive Analysis Chart
View Comprehensive Chart
Conjunction Data List
Event ID Objects TCA Miss Dist (km) Collision Risk Probability Collision Risk Index (CRI) Action
CDM_260905-025905-284706-606622
2026-09-05T
02:59:11+0000
2.413 km
极远距离
1.669696E-6 低风险 0.39
CDM_260901-102705-284706-983822
2026-09-01T
10:27:02+0000
2.504 km
极远距离
1.347594E-6 低风险 0.38
CDM_260905-214005-284706-637221
2026-09-05T
21:40:29+0000
2.796 km
极远距离
1.312882E-6 低风险 0.37
CDM_260904-151005-284706-371521
2026-09-04T
15:10:32+0000
2.930 km
极远距离
1.229147E-6 低风险 0.37
CDM_260905-201705-284706-092021
2026-09-05T
20:17:39+0000
2.888 km
极远距离
1.194329E-6 低风险 0.37
CDM_260904-172105-284706-592421
2026-09-04T
17:21:26+0000
2.823 km
极远距离
1.147735E-6 低风险 0.36
CDM_260905-075205-284706-015021
2026-09-05T
07:52:40+0000
2.833 km
极远距离
1.097123E-6 低风险 0.36
CDM_260905-123705-284706-693321
2026-09-05T
12:37:52+0000
2.525 km
极远距离
1.028413E-6 低风险 0.35
CDM_260905-045105-284706-689921
2026-09-05T
04:51:25+0000
2.641 km
极远距离
7.202717E-7 极低风险 0.32